Location: Prairie Dale
(45.6972°N, 104.5033°W)
Time: 16:14:21
(UTC+00:00)

Envisat - Pass Details

Date: 31 January 2022
Orbit: 764 x 765 km, 98.2° (Epoch: 15 May)

Event Time Altitude Azimuth Distance (km) Brightness Sun altitude
Rises 11:13:08 0° 21° (NNE) 3,242 6.6 -32.8°
Reaches altitude 10° 11:15:38 10° 30° (NNE) 2,311 5.9 -32.4°
Maximum altitude 11:20:19 36° 96° (E) 1,200 4.4 -31.6°
Drops below altitude 10° 11:24:58 10° 163° (SSE) 2,296 5.6 -30.8°
Sets 11:27:26 0° 172° (S) 3,218 6.3 -30.4°
